When you browse on this site, cookies collect data to enhance your experience and personalize the content and advertising you see.
Visit our Privacy Policy to learn more. By continuing to use the site, you agree to this use of cookies and data.
  • In Hungary
  • List of Countries
  • For 7 days
  • Water Temperature
  • Weather Map
  • News
  • Weather Widgets
  • user-avatar
    Login

    Hourly Weather Boane

    Today, 15 November, Friday

    Time Temperature Precipitation Wind Pressure Humidity
    00:00 +24°C° 0.5 mm 2 mps 747 mmHg 95%
    01:00 +23°C° 0.5 mm 2 mps 747 mmHg 96%
    02:00 +23°C° 0.5 mm 2 mps 747 mmHg 96%
    03:00 +23°C° 0.1 mm 1 mps 747 mmHg 96%
    04:00 +23°C° 0.1 mm 1 mps 747 mmHg 96%
    05:00 +21°C° 0.1 mm 0 mps 746 mmHg 96%
    06:00 +24°C° 0 mm 1 mps 747 mmHg 90%
    07:00 +25°C° 0 mm 1 mps 747 mmHg 84%
    08:00 +27°C° 0 mm 1 mps 747 mmHg 78%
    09:00 +29°C° 0.1 mm 2 mps 747 mmHg 68%
    10:00 +31°C° 0.1 mm 2 mps 746 mmHg 58%
    11:00 +34°C° 0.1 mm 3 mps 746 mmHg 48%
    12:00 +34°C° 0.6 mm 3 mps 746 mmHg 51%
    13:00 +34°C° 0.6 mm 2 mps 745 mmHg 53%
    14:00 +32°C° 0.6 mm 2 mps 745 mmHg 56%
    15:00 +31°C° 0.9 mm 3 mps 745 mmHg 64%
    16:00 +29°C° 0.9 mm 3 mps 744 mmHg 72%
    17:00 +27°C° 0.9 mm 4 mps 744 mmHg 80%
    18:00 +26°C° 0.2 mm 3 mps 745 mmHg 83%
    19:00 +24°C° 0.2 mm 3 mps 746 mmHg 86%
    20:00 +23°C° 0.2 mm 2 mps 746 mmHg 90%
    21:00 +23°C° 0 mm 2 mps 746 mmHg 90%
    22:00 +21°C° 0 mm 2 mps 746 mmHg 90%
    23:00 +21°C° 0 mm 2 mps 746 mmHg 89%

    Tomorrow, 16 November, Saturday

    Time Temperature Precipitation Wind Pressure Humidity
    00:00 +20°C° 0 mm 2 mps 746 mmHg 90%
    01:00 +20°C° 0 mm 2 mps 745 mmHg 90%
    02:00 +19°C° 0 mm 2 mps 745 mmHg 90%
    03:00 +19°C° 0 mm 2 mps 745 mmHg 91%
    04:00 +19°C° 0 mm 3 mps 745 mmHg 92%
    05:00 +19°C° 0 mm 3 mps 745 mmHg 93%
    06:00 +21°C° 0 mm 4 mps 746 mmHg 82%
    07:00 +25°C° 0 mm 4 mps 746 mmHg 71%
    08:00 +27°C° 0 mm 5 mps 747 mmHg 60%
    09:00 +29°C° 0 mm 5 mps 746 mmHg 54%
    10:00 +32°C° 0 mm 5 mps 746 mmHg 48%
    11:00 +33°C° 0 mm 6 mps 746 mmHg 42%
    12:00 +33°C° 0 mm 6 mps 745 mmHg 42%
    13:00 +34°C° 0 mm 6 mps 745 mmHg 42%
    14:00 +34°C° 0 mm 6 mps 745 mmHg 42%
    15:00 +32°C° 0 mm 6 mps 745 mmHg 46%
    16:00 +30°C° 0 mm 6 mps 745 mmHg 50%
    17:00 +29°C° 0 mm 5 mps 745 mmHg 55%
    18:00 +27°C° 0 mm 5 mps 745 mmHg 62%
    19:00 +26°C° 0 mm 4 mps 745 mmHg 70%
    20:00 +24°C° 0 mm 3 mps 746 mmHg 77%
    21:00 +22°C° 0 mm 3 mps 746 mmHg 83%
    22:00 +21°C° 0 mm 2 mps 746 mmHg 88%
    23:00 +21°C° 0 mm 2 mps 746 mmHg 93%

    Day after tomorrow, 17 November, Sunday

    Time Temperature Precipitation Wind Pressure Humidity
    00:00 +20°C° 0 mm 2 mps 746 mmHg 95%
    01:00 +20°C° 0 mm 2 mps 746 mmHg 96%
    02:00 +20°C° 0 mm 2 mps 746 mmHg 97%
    03:00 +20°C° 0 mm 2 mps 746 mmHg 97%
    04:00 +20°C° 0 mm 2 mps 746 mmHg 97%
    05:00 +20°C° 0 mm 2 mps 746 mmHg 97%
    06:00 +24°C° 0 mm 2 mps 746 mmHg 84%
    07:00 +26°C° 0 mm 2 mps 747 mmHg 71%
    08:00 +29°C° 0 mm 3 mps 747 mmHg 58%
    09:00 +31°C° 0 mm 2 mps 747 mmHg 49%
    10:00 +35°C° 0 mm 2 mps 746 mmHg 41%
    11:00 +38°C° 0 mm 2 mps 746 mmHg 32%
    12:00 +38°C° 0 mm 2 mps 746 mmHg 34%
    13:00 +37°C° 0 mm 3 mps 745 mmHg 35%
    14:00 +37°C° 0 mm 3 mps 744 mmHg 37%
    15:00 +35°C° 0 mm 4 mps 744 mmHg 47%
    16:00 +32°C° 0 mm 4 mps 744 mmHg 56%
    17:00 +29°C° 0 mm 4 mps 744 mmHg 66%
    18:00 +27°C° 0 mm 4 mps 744 mmHg 73%
    19:00 +26°C° 0 mm 3 mps 744 mmHg 80%
    20:00 +25°C° 0 mm 3 mps 745 mmHg 86%
    21:00 +24°C° 0 mm 3 mps 745 mmHg 88%
    22:00 +24°C° 0 mm 3 mps 745 mmHg 89%
    23:00 +24°C° 0 mm 3 mps 745 mmHg 91%

    18 November, Monday

    Time Temperature Precipitation Wind Pressure Humidity
    00:00 +24°C° 0 mm 3 mps 745 mmHg 93%
    01:00 +24°C° 0 mm 3 mps 745 mmHg 94%
    02:00 +23°C° 0 mm 2 mps 745 mmHg 96%
    03:00 +23°C° 0 mm 2 mps 746 mmHg 96%
    04:00 +23°C° 0 mm 2 mps 746 mmHg 96%
    05:00 +23°C° 0 mm 2 mps 747 mmHg 96%
    06:00 +26°C° 0 mm 2 mps 747 mmHg 82%
    07:00 +29°C° 0 mm 2 mps 748 mmHg 67%
    08:00 +32°C° 0 mm 2 mps 748 mmHg 53%
    09:00 +35°C° 0 mm 3 mps 748 mmHg 48%
    10:00 +36°C° 0 mm 3 mps 748 mmHg 43%
    11:00 +38°C° 0 mm 4 mps 748 mmHg 39%
    12:00 +38°C° 0 mm 4 mps 747 mmHg 40%
    13:00 +37°C° 0 mm 5 mps 747 mmHg 42%
    14:00 +37°C° 0 mm 5 mps 746 mmHg 44%
    15:00 +35°C° 0 mm 5 mps 746 mmHg 51%
    16:00 +33°C° 0 mm 5 mps 746 mmHg 58%
    17:00 +30°C° 0 mm 5 mps 746 mmHg 65%
    18:00 +29°C° 0 mm 5 mps 746 mmHg 72%
    19:00 +27°C° 0 mm 5 mps 747 mmHg 79%
    20:00 +26°C° 0 mm 4 mps 747 mmHg 86%
    21:00 +26°C° 0 mm 4 mps 748 mmHg 88%
    22:00 +25°C° 0 mm 3 mps 748 mmHg 90%
    23:00 +25°C° 0 mm 3 mps 749 mmHg 92%

    19 November, Tuesday

    Time Temperature Precipitation Wind Pressure Humidity
    00:00 +25°C° 0 mm 3 mps 748 mmHg 93%
    01:00 +24°C° 0 mm 2 mps 748 mmHg 94%
    02:00 +24°C° 0 mm 2 mps 748 mmHg 96%
    03:00 +24°C° 0 mm 2 mps 748 mmHg 96%
    04:00 +24°C° 0 mm 2 mps 748 mmHg 97%
    05:00 +23°C° 0 mm 2 mps 748 mmHg 98%
    06:00 +25°C° 0 mm 3 mps 748 mmHg 88%
    07:00 +27°C° 0 mm 3 mps 748 mmHg 79%
    08:00 +29°C° 0 mm 4 mps 749 mmHg 69%
    09:00 +33°C° 0 mm 4 mps 748 mmHg 60%
    10:00 +36°C° 0 mm 4 mps 748 mmHg 50%
    11:00 +40°C° 0 mm 4 mps 748 mmHg 40%
    12:00 +40°C° 0 mm 4 mps 747 mmHg 41%
    13:00 +40°C° 0 mm 5 mps 746 mmHg 42%
    14:00 +40°C° 0 mm 6 mps 746 mmHg 43%
    15:00 +38°C° 0 mm 6 mps 745 mmHg 51%
    16:00 +35°C° 0 mm 6 mps 745 mmHg 59%
    17:00 +33°C° 0 mm 6 mps 745 mmHg 67%
    18:00 +30°C° 0 mm 5 mps 745 mmHg 75%
    19:00 +29°C° 0 mm 5 mps 745 mmHg 82%
    20:00 +27°C° 0 mm 4 mps 745 mmHg 90%
    21:00 +27°C° 0 mm 4 mps 745 mmHg 92%
    22:00 +27°C° 0 mm 3 mps 746 mmHg 94%
    23:00 +26°C° 0 mm 3 mps 746 mmHg 97%

    20 November, Wednesday

    Time Temperature Precipitation Wind Pressure Humidity
    00:00 +26°C° 0 mm 3 mps 746 mmHg 97%
    01:00 +26°C° 0 mm 3 mps 746 mmHg 96%
    02:00 +26°C° 0 mm 3 mps 746 mmHg 96%
    03:00 +26°C° 0 mm 2 mps 746 mmHg 95%
    04:00 +26°C° 0 mm 2 mps 746 mmHg 94%
    05:00 +26°C° 0 mm 1 mps 747 mmHg 93%
    06:00 +28°C° 0 mm 1 mps 747 mmHg 87%
    07:00 +29°C° 0 mm 1 mps 747 mmHg 80%
    08:00 +30°C° 0 mm 1 mps 748 mmHg 74%
    09:00 +31°C° 0 mm 1 mps 747 mmHg 70%
    10:00 +32°C° 0 mm 1 mps 747 mmHg 65%
    11:00 +33°C° 0 mm 1 mps 747 mmHg 61%
    12:00 +35°C° 0.2 mm 2 mps 746 mmHg 60%
    13:00 +35°C° 0.2 mm 2 mps 745 mmHg 58%
    14:00 +35°C° 0.2 mm 2 mps 744 mmHg 57%
    15:00 +33°C° 6.4 mm 3 mps 745 mmHg 69%
    16:00 +29°C° 6.4 mm 4 mps 745 mmHg 81%
    17:00 +27°C° 6.4 mm 4 mps 745 mmHg 92%
    18:00 +26°C° 3.1 mm 4 mps 746 mmHg 93%
    19:00 +25°C° 3.1 mm 3 mps 747 mmHg 93%
    20:00 +25°C° 3.1 mm 3 mps 747 mmHg 94%
    21:00 +25°C° 0.4 mm 3 mps 747 mmHg 94%
    22:00 +25°C° 0.4 mm 3 mps 747 mmHg 95%
    23:00 +26°C° 0.4 mm 2 mps 748 mmHg 95%
    Show more